Time,TemperatureF,DewpointF,PressureIn,WindDirection,WindDirectionDegrees,WindSpeedMPH,WindSpeedGustMPH,Humidity,HourlyPrecipIn,Conditions,Clouds,dailyrainin,SoftwareType,DateUTC
2013-05-04 00:10:00,60.6,38.5,30.11,WNW,292,0.0,5.8,44,0.00,,,0.00,open2300-1.11,2013-05-04 07:10:00,
2013-05-04 00:20:00,59.9,38.4,30.11,NW,315,0.0,0.0,45,0.00,,,0.00,open2300-1.11,2013-05-04 07:20:00,
2013-05-04 00:30:00,59.7,38.2,30.11,NNW,337,4.7,4.7,45,0.00,,,0.00,open2300-1.11,2013-05-04 07:30:00,
2013-05-04 00:40:00,59.4,38.5,30.11,NW,315,0.0,5.4,46,0.00,,,0.00,open2300-1.11,2013-05-04 07:40:00,
2013-05-04 00:50:00,59.2,38.3,30.11,NNW,337,0.0,0.0,46,0.00,,,0.00,open2300-1.11,2013-05-04 07:50:00,
2013-05-04 01:00:00,58.8,37.4,30.11,NNW,337,0.0,5.6,45,0.00,,,0.00,open2300-1.11,2013-05-04 08:00:00,
2013-05-04 01:10:00,59.0,38.2,30.10,NNW,337,0.0,4.5,46,0.00,,,0.00,open2300-1.11,2013-05-04 08:10:00,
2013-05-04 01:20:00,59.5,38.1,30.10,NNW,337,0.0,6.0,45,0.00,,,0.00,open2300-1.11,2013-05-04 08:20:00,
2013-05-04 01:30:00,59.2,37.7,30.10,WNW,292,0.0,3.1,45,0.00,,,0.00,open2300-1.11,2013-05-04 08:30:00,
2013-05-04 01:40:00,58.8,38.0,30.10,WNW,292,0.0,0.0,46,0.00,,,0.00,open2300-1.11,2013-05-04 08:40:00,
2013-05-04 01:50:00,58.1,37.9,30.10,NW,315,0.0,4.2,47,0.00,,,0.00,open2300-1.11,2013-05-04 08:50:00,
2013-05-04 02:00:00,58.1,37.9,30.10,NNW,337,3.6,3.6,47,0.00,,,0.00,open2300-1.11,2013-05-04 09:00:00,
2013-05-04 02:10:00,58.1,38.5,30.10,NW,315,3.4,4.0,48,0.00,,,0.00,open2300-1.11,2013-05-04 09:10:00,
2013-05-04 02:20:00,57.9,38.3,30.10,NW,315,0.0,4.0,48,0.00,,,0.00,open2300-1.11,2013-05-04 09:20:00,
2013-05-04 02:30:00,57.7,38.2,30.10,NW,315,0.0,4.5,48,0.00,,,0.00,open2300-1.11,2013-05-04 09:30:00,
2013-05-04 02:40:00,57.0,37.5,30.10,WNW,292,0.0,0.0,48,0.00,,,0.00,open2300-1.11,2013-05-04 09:40:00,
2013-05-04 02:50:00,56.8,37.9,30.09,WNW,292,0.0,0.0,49,0.00,,,0.00,open2300-1.11,2013-05-04 09:50:00,
2013-05-04 03:00:00,56.5,38.1,30.10,West,270,0.0,0.0,50,0.00,,,0.00,open2300-1.11,2013-05-04 10:00:00,
2013-05-04 03:10:00,55.6,37.7,30.09,West,270,0.0,0.0,51,0.00,,,0.00,open2300-1.11,2013-05-04 10:10:00,
2013-05-04 03:20:00,55.0,37.2,30.09,WNW,292,0.0,0.0,51,0.00,,,0.00,open2300-1.11,2013-05-04 10:20:00,
2013-05-04 03:30:00,55.0,37.2,30.09,WNW,292,0.0,0.0,51,0.00,,,0.00,open2300-1.11,2013-05-04 10:30:00,
2013-05-04 03:40:00,55.0,37.7,30.09,NW,315,0.0,0.0,52,0.00,,,0.00,open2300-1.11,2013-05-04 10:40:00,
2013-05-04 03:50:00,54.1,36.8,30.10,WNW,292,0.0,0.0,52,0.00,,,0.00,open2300-1.11,2013-05-04 10:50:00,
2013-05-04 04:00:00,53.2,36.5,30.09,WNW,292,0.0,0.0,53,0.00,,,0.00,open2300-1.11,2013-05-04 11:00:00,
2013-05-04 04:10:00,52.9,36.6,30.09,WNW,292,0.0,0.0,54,0.00,,,0.00,open2300-1.11,2013-05-04 11:10:00,
2013-05-04 04:20:00,52.7,36.9,30.09,NW,315,0.0,0.0,55,0.00,,,0.00,open2300-1.11,2013-05-04 11:20:00,
2013-05-04 04:30:00,52.5,37.2,30.08,NW,315,1.8,1.8,56,0.00,,,0.00,open2300-1.11,2013-05-04 11:30:00,
2013-05-04 04:40:00,52.5,37.6,30.08,NW,315,0.0,4.7,57,0.00,,,0.00,open2300-1.11,2013-05-04 11:40:00,
2013-05-04 04:50:00,52.5,37.6,30.08,North,0,0.0,0.0,57,0.00,,,0.00,open2300-1.11,2013-05-04 11:50:00,
2013-05-04 05:00:00,52.3,37.5,30.08,North,0,0.0,0.0,57,0.00,,,0.00,open2300-1.11,2013-05-04 12:00:00,
2013-05-04 05:12:00,176.5,99.9,30.08,North,0,0.0,0.0,110,0.00,,,0.00,open2300-1.11,2013-05-04 12:12:00,
2013-05-04 05:20:00,52.3,37.9,30.08,NW,315,0.0,114.1,58,0.00,,,0.00,open2300-1.11,2013-05-04 12:20:00,
2013-05-04 05:30:00,52.5,38.1,30.09,NW,315,0.0,0.0,58,0.00,,,0.00,open2300-1.11,2013-05-04 12:30:00,
2013-05-04 05:40:00,52.5,38.5,30.09,NNW,337,0.0,0.0,59,0.00,,,0.00,open2300-1.11,2013-05-04 12:40:00,
2013-05-04 05:50:00,52.3,38.4,30.09,North,0,0.0,3.6,59,0.00,,,0.00,open2300-1.11,2013-05-04 12:50:00,
2013-05-04 06:00:00,52.5,38.5,30.09,NNW,337,3.1,3.1,59,0.00,,,0.00,open2300-1.11,2013-05-04 13:00:00,
2013-05-04 06:10:00,176.7,99.9,30.09,NNW,337,0.0,0.0,110,0.00,,,0.00,open2300-1.11,2013-05-04 13:10:00,
2013-05-04 06:20:00,53.4,39.5,30.09,North,0,3.4,114.1,59,0.00,,,0.00,open2300-1.11,2013-05-04 13:20:00,
2013-05-04 06:30:00,53.6,39.6,30.09,NNW,337,0.0,3.4,59,0.00,,,0.00,open2300-1.11,2013-05-04 13:30:00,
2013-05-04 06:40:00,54.0,40.4,30.09,NNE,22,0.0,0.0,60,0.00,,,0.00,open2300-1.11,2013-05-04 13:40:00,
2013-05-04 06:50:00,54.3,40.3,30.09,East,90,0.0,0.0,59,0.00,,,0.00,open2300-1.11,2013-05-04 13:50:00,
2013-05-04 07:00:00,54.1,40.1,30.09,East,90,0.0,0.0,59,0.00,,,0.00,open2300-1.11,2013-05-04 14:00:00,
2013-05-04 07:10:00,55.0,41.4,30.09,East,90,0.0,0.0,60,0.00,,,0.00,open2300-1.11,2013-05-04 14:10:00,
2013-05-04 07:20:00,56.1,42.0,30.09,East,90,0.0,0.0,59,0.00,,,0.00,open2300-1.11,2013-05-04 14:20:00,
2013-05-04 07:30:00,56.7,42.5,30.09,East,90,0.0,0.0,59,0.00,,,0.00,open2300-1.11,2013-05-04 14:30:00,
2013-05-04 07:40:00,57.2,42.6,30.08,East,90,0.0,0.0,58,0.00,,,0.00,open2300-1.11,2013-05-04 14:40:00,
2013-05-04 07:50:00,58.6,43.9,30.08,East,90,0.0,0.0,58,0.00,,,0.00,open2300-1.11,2013-05-04 14:50:00,
2013-05-04 08:00:00,58.6,43.9,30.08,East,90,0.0,0.0,58,0.00,,,0.00,open2300-1.11,2013-05-04 15:00:00,
2013-05-04 08:10:00,177.4,99.9,30.07,East,90,0.0,0.0,110,0.00,,,0.00,open2300-1.11,2013-05-04 15:10:00,
2013-05-04 08:20:00,177.4,99.9,30.07,East,90,0.0,0.0,110,0.00,,,0.00,open2300-1.11,2013-05-04 15:20:00,
2013-05-04 08:30:00,61.0,44.2,30.07,NNW,337,5.4,114.1,54,0.00,,,0.00,open2300-1.11,2013-05-04 15:30:00,
2013-05-04 08:40:00,61.2,44.8,30.07,WNW,292,3.8,8.1,55,0.00,,,0.00,open2300-1.11,2013-05-04 15:40:00,
2013-05-04 08:50:00,61.7,44.8,30.07,NNW,337,0.0,6.9,54,0.00,,,0.00,open2300-1.11,2013-05-04 15:50:00,
2013-05-04 09:00:00,62.6,45.2,30.07,North,0,8.5,8.5,53,0.00,,,0.00,open2300-1.11,2013-05-04 16:00:00,
2013-05-04 09:10:00,63.3,45.8,30.07,North,0,6.9,8.5,53,0.00,,,0.00,open2300-1.11,2013-05-04 16:10:00,
2013-05-04 09:20:00,64.9,46.8,30.06,NW,315,6.5,6.9,52,0.00,,,0.00,open2300-1.11,2013-05-04 16:20:00,
2013-05-04 09:30:00,65.1,46.5,30.06,NW,315,0.0,7.4,51,0.00,,,0.00,open2300-1.11,2013-05-04 16:30:00,
2013-05-04 09:40:00,65.7,46.6,30.06,NW,315,5.6,8.3,50,0.00,,,0.00,open2300-1.11,2013-05-04 16:40:00,
2013-05-04 09:50:00,66.4,46.7,30.05,NW,315,7.2,7.8,49,0.00,,,0.00,open2300-1.11,2013-05-04 16:50:00,
2013-05-04 10:00:00,66.7,46.4,30.05,NNW,337,4.0,11.2,48,0.00,,,0.00,open2300-1.11,2013-05-04 17:00:00,
2013-05-04 10:10:00,68.2,47.1,30.05,NW,315,6.5,9.4,47,0.00,,,0.00,open2300-1.11,2013-05-04 17:10:00,
2013-05-04 10:20:00,69.1,47.3,30.05,NNE,22,9.6,9.8,46,0.00,,,0.00,open2300-1.11,2013-05-04 17:20:00,
2013-05-04 10:30:00,70.0,47.5,30.05,NNW,337,7.2,9.6,45,0.00,,,0.00,open2300-1.11,2013-05-04 17:30:00,
2013-05-04 10:40:00,70.5,48.0,30.04,North,0,6.9,7.6,45,0.00,,,0.00,open2300-1.11,2013-05-04 17:40:00,
2013-05-04 10:50:00,70.9,48.4,30.04,North,0,6.7,10.1,45,0.00,,,0.00,open2300-1.11,2013-05-04 17:50:00,
2013-05-04 11:00:00,71.2,48.1,30.04,North,0,8.3,9.2,44,0.00,,,0.00,open2300-1.11,2013-05-04 18:00:00,
2013-05-04 11:10:00,71.8,48.6,30.04,North,0,6.9,8.3,44,0.00,,,0.00,open2300-1.11,2013-05-04 18:10:00,
2013-05-04 11:20:00,72.1,48.3,30.02,North,0,7.8,7.8,43,0.00,,,0.00,open2300-1.11,2013-05-04 18:20:00,
2013-05-04 11:30:00,73.2,48.7,30.03,NNW,337,6.5,7.8,42,0.00,,,0.00,open2300-1.11,2013-05-04 18:30:00,
2013-05-04 11:40:00,177.6,99.9,30.02,NNW,337,0.0,0.0,110,0.00,,,0.00,open2300-1.11,2013-05-04 18:40:00,
2013-05-04 11:50:00,74.5,49.2,30.01,North,0,7.6,114.1,41,0.00,,,0.00,open2300-1.11,2013-05-04 18:50:00,
2013-05-04 12:00:00,75.0,48.4,30.01,NNW,337,6.9,15.7,39,0.00,,,0.00,open2300-1.11,2013-05-04 19:00:00,
2013-05-04 12:10:00,75.7,49.0,30.01,North,0,9.8,11.9,39,0.00,,,0.00,open2300-1.11,2013-05-04 19:10:00,
2013-05-04 12:20:00,76.5,48.9,30.00,NNW,337,6.0,10.7,38,0.00,,,0.00,open2300-1.11,2013-05-04 19:20:00,
2013-05-04 12:30:00,77.0,48.6,30.00,North,0,0.0,8.1,37,0.00,,,0.00,open2300-1.11,2013-05-04 19:30:00,
2013-05-04 12:40:00,77.5,49.1,29.99,North,0,8.3,8.3,37,0.00,,,0.00,open2300-1.11,2013-05-04 19:40:00,
2013-05-04 12:50:00,78.1,48.0,29.98,NNW,337,6.7,10.7,35,0.00,,,0.00,open2300-1.11,2013-05-04 19:50:00,
2013-05-04 13:00:00,78.6,48.5,29.98,NNW,337,6.3,10.7,35,0.00,,,0.00,open2300-1.11,2013-05-04 20:00:00,
2013-05-04 13:10:00,78.6,48.5,29.97,NE,45,5.1,9.6,35,0.00,,,0.00,open2300-1.11,2013-05-04 20:10:00,
2013-05-04 13:20:00,79.3,48.4,29.97,NNW,337,7.2,10.1,34,0.00,,,0.00,open2300-1.11,2013-05-04 20:20:00,
2013-05-04 13:30:00,79.9,47.3,29.96,North,0,8.5,15.7,32,0.00,,,0.00,open2300-1.11,2013-05-04 20:30:00,
2013-05-04 13:40:00,79.9,47.3,29.96,NNE,22,6.0,12.1,32,0.00,,,0.00,open2300-1.11,2013-05-04 20:40:00,
2013-05-04 13:50:00,80.4,47.0,29.95,NE,45,2.0,9.8,31,0.00,,,0.00,open2300-1.11,2013-05-04 20:50:00,
2013-05-04 14:00:00,81.3,43.8,29.94,ENE,67,7.4,11.6,27,0.00,,,0.00,open2300-1.11,2013-05-04 21:00:00,
2013-05-04 14:10:00,81.5,42.9,29.94,East,90,2.0,9.8,26,0.00,,,0.00,open2300-1.11,2013-05-04 21:10:00,
2013-05-04 14:20:00,81.5,42.9,29.94,NNE,22,13.4,13.4,26,0.00,,,0.00,open2300-1.11,2013-05-04 21:20:00,
2013-05-04 14:30:00,81.3,42.8,29.94,NE,45,7.4,13.6,26,0.00,,,0.00,open2300-1.11,2013-05-04 21:30:00,
2013-05-04 14:40:00,81.3,42.8,29.94,NE,45,8.3,12.3,26,0.00,,,0.00,open2300-1.11,2013-05-04 21:40:00,
2013-05-04 14:50:00,81.1,42.7,29.94,NNE,22,7.2,8.7,26,0.00,,,0.00,open2300-1.11,2013-05-04 21:50:00,
2013-05-04 15:00:00,81.5,42.9,29.94,NE,45,6.7,8.9,26,0.00,,,0.00,open2300-1.11,2013-05-04 22:00:00,
2013-05-04 15:10:00,81.5,40.9,29.93,ENE,67,7.6,10.5,24,0.00,,,0.00,open2300-1.11,2013-05-04 22:10:00,
2013-05-04 15:20:00,81.5,42.9,29.93,NE,45,6.5,11.6,26,0.00,,,0.00,open2300-1.11,2013-05-04 22:20:00,
2013-05-04 15:30:00,81.5,40.9,29.92,NE,45,9.2,11.2,24,0.00,,,0.00,open2300-1.11,2013-05-04 22:30:00,
2013-05-04 15:40:00,81.5,40.9,29.92,NE,45,11.4,16.1,24,0.00,,,0.00,open2300-1.11,2013-05-04 22:40:00,
2013-05-04 15:50:00,81.5,41.9,29.92,NE,45,4.9,11.4,25,0.00,,,0.00,open2300-1.11,2013-05-04 22:50:00,
2013-05-04 16:00:00,81.7,43.1,29.91,NE,45,7.2,7.8,26,0.00,,,0.00,open2300-1.11,2013-05-04 23:00:00,
2013-05-04 16:10:00,81.7,42.0,29.91,NE,45,6.9,18.6,25,0.00,,,0.00,open2300-1.11,2013-05-04 23:10:00,
2013-05-04 16:20:00,81.5,42.9,29.90,NE,45,5.6,9.4,26,0.00,,,0.00,open2300-1.11,2013-05-04 23:20:00,
2013-05-04 16:30:00,81.5,42.9,29.89,NNE,22,9.4,11.2,26,0.00,,,0.00,open2300-1.11,2013-05-04 23:30:00,
2013-05-04 16:40:00,81.3,42.8,29.89,NE,45,11.0,11.0,26,0.00,,,0.00,open2300-1.11,2013-05-04 23:40:00,
2013-05-04 16:50:00,81.0,42.5,29.89,NE,45,8.7,11.0,26,0.00,,,0.00,open2300-1.11,2013-05-04 23:50:00,
2013-05-04 17:00:00,80.8,43.4,29.89,ENE,67,6.5,8.7,27,0.00,,,0.00,open2300-1.11,2013-05-05 00:00:00,
2013-05-04 17:10:00,80.8,43.4,29.89,ENE,67,5.4,10.3,27,0.00,,,0.00,open2300-1.11,2013-05-05 00:10:00,
2013-05-04 17:20:00,80.8,43.4,29.88,NNE,22,7.4,7.4,27,0.00,,,0.00,open2300-1.11,2013-05-05 00:20:00,
2013-05-04 17:30:00,80.6,42.2,29.88,NNE,22,9.4,10.7,26,0.00,,,0.00,open2300-1.11,2013-05-05 00:30:00,
2013-05-04 17:40:00,80.2,41.9,29.88,NE,45,6.7,9.4,26,0.00,,,0.00,open2300-1.11,2013-05-05 00:40:00,
2013-05-04 17:50:00,177.4,99.9,29.87,NE,45,0.0,0.0,110,0.00,,,0.00,open2300-1.11,2013-05-05 00:50:00,
2013-05-04 18:00:00,177.4,99.9,29.87,NE,45,0.0,0.0,110,0.00,,,0.00,open2300-1.11,2013-05-05 01:00:00,
2013-05-04 18:10:00,177.4,99.9,29.87,NE,45,0.0,0.0,110,0.00,,,0.00,open2300-1.11,2013-05-05 01:10:00,
2013-05-04 18:20:00,79.7,42.5,29.87,NNE,22,0.0,114.1,27,0.00,,,0.00,open2300-1.11,2013-05-05 01:20:00,
2013-05-04 18:30:00,80.1,42.8,29.87,NE,45,2.2,7.8,27,0.00,,,0.00,open2300-1.11,2013-05-05 01:30:00,
2013-05-04 18:40:00,80.4,43.1,29.87,NE,45,0.0,7.8,27,0.00,,,0.00,open2300-1.11,2013-05-05 01:40:00,
2013-05-04 18:50:00,80.4,43.1,29.87,NE,45,4.9,7.6,27,0.00,,,0.00,open2300-1.11,2013-05-05 01:50:00,
2013-05-04 19:00:00,80.4,43.1,29.87,NE,45,1.1,6.7,27,0.00,,,0.00,open2300-1.11,2013-05-05 02:00:00,
2013-05-04 19:10:00,79.5,42.3,29.86,NNE,22,7.4,8.5,27,0.00,,,0.00,open2300-1.11,2013-05-05 02:10:00,
2013-05-04 19:20:00,78.6,42.5,29.87,NE,45,6.7,7.4,28,0.00,,,0.00,open2300-1.11,2013-05-05 02:20:00,
2013-05-04 19:30:00,78.3,42.3,29.87,NE,45,2.0,6.9,28,0.00,,,0.00,open2300-1.11,2013-05-05 02:30:00,
2013-05-04 19:40:00,77.7,41.8,29.87,ENE,67,1.8,6.3,28,0.00,,,0.00,open2300-1.11,2013-05-05 02:40:00,
2013-05-04 19:50:00,76.3,41.7,29.87,NE,45,6.9,8.1,29,0.00,,,0.00,open2300-1.11,2013-05-05 02:50:00,
2013-05-04 20:00:00,75.6,41.0,29.87,ENE,67,2.7,6.9,29,0.00,,,0.00,open2300-1.11,2013-05-05 03:00:00,
2013-05-04 20:10:00,75.2,40.7,29.87,ENE,67,3.4,4.2,29,0.00,,,0.00,open2300-1.11,2013-05-05 03:10:00,
2013-05-04 20:20:00,73.0,39.8,29.88,NE,45,4.9,8.3,30,0.00,,,0.00,open2300-1.11,2013-05-05 03:20:00,
2013-05-04 20:30:00,72.3,38.2,29.88,NE,45,0.0,4.9,29,0.00,,,0.00,open2300-1.11,2013-05-05 03:30:00,
2013-05-04 20:40:00,71.8,37.8,29.88,NE,45,2.5,2.5,29,0.00,,,0.00,open2300-1.11,2013-05-05 03:40:00,
2013-05-04 20:50:00,71.2,38.3,29.88,NNE,22,0.0,6.3,30,0.00,,,0.00,open2300-1.11,2013-05-05 03:50:00,
2013-05-04 21:00:00,70.3,38.3,29.89,NE,45,0.0,7.4,31,0.00,,,0.00,open2300-1.11,2013-05-05 04:00:00,
2013-05-04 21:10:00,70.0,37.9,29.89,NE,45,0.0,1.1,31,0.00,,,0.00,open2300-1.11,2013-05-05 04:10:00,
2013-05-04 21:20:00,69.6,37.6,29.89,NNE,22,0.0,3.6,31,0.00,,,0.00,open2300-1.11,2013-05-05 04:20:00,
2013-05-04 21:30:00,68.5,37.4,29.89,North,0,0.0,0.0,32,0.00,,,0.00,open2300-1.11,2013-05-05 04:30:00,
2013-05-04 21:40:00,67.8,36.7,29.89,North,0,0.0,0.0,32,0.00,,,0.00,open2300-1.11,2013-05-05 04:40:00,
2013-05-04 21:50:00,67.6,37.3,29.89,NNE,22,0.0,3.1,33,0.00,,,0.00,open2300-1.11,2013-05-05 04:50:00,
2013-05-04 22:00:00,67.3,37.0,29.89,NE,45,0.0,0.0,33,0.00,,,0.00,open2300-1.11,2013-05-05 05:00:00,
2013-05-04 22:10:00,66.0,36.0,29.89,NE,45,0.0,0.0,33,0.00,,,0.00,open2300-1.11,2013-05-05 05:10:00,
2013-05-04 22:20:00,65.3,36.0,29.89,NE,45,0.0,0.0,34,0.00,,,0.00,open2300-1.11,2013-05-05 05:20:00,
2013-05-04 22:30:00,65.3,36.0,29.89,NNE,22,0.0,0.0,34,0.00,,,0.00,open2300-1.11,2013-05-05 05:30:00,
2013-05-04 22:40:00,65.5,36.2,29.89,NNE,22,0.0,0.0,34,0.00,,,0.00,open2300-1.11,2013-05-05 05:40:00,
2013-05-04 22:50:00,64.9,37.2,29.89,NNE,22,0.0,0.0,36,0.00,,,0.00,open2300-1.11,2013-05-05 05:50:00,
2013-05-04 23:00:00,64.0,37.1,29.88,North,0,0.0,0.0,37,0.00,,,0.00,open2300-1.11,2013-05-05 06:00:00,
2013-05-04 23:10:00,62.8,36.7,29.88,NE,45,0.0,3.4,38,0.00,,,0.00,open2300-1.11,2013-05-05 06:10:00,
2013-05-04 23:20:00,61.9,36.6,29.88,NNE,22,3.8,5.6,39,0.00,,,0.00,open2300-1.11,2013-05-05 06:20:00,
2013-05-04 23:30:00,62.1,36.7,29.87,NNE,22,6.0,6.0,39,0.00,,,0.00,open2300-1.11,2013-05-05 06:30:00,
2013-05-04 23:40:00,61.5,36.2,29.88,North,0,0.7,6.3,39,0.00,,,0.00,open2300-1.11,2013-05-05 06:40:00,
2013-05-04 23:50:00,60.6,36.2,29.88,NNE,22,0.0,3.6,40,0.00,,,0.00,open2300-1.11,2013-05-05 06:50:00,